Location: ??
(35.5052°N, 139.7262°E)
Time: 09:25:36
(UTC+00:00)

Nauka - Visible Passes

Search period start: 17 September 2021 00:00
Search period end: 27 September 2021 00:00
Orbit: 419 x 423 km, 51.6° (Epoch: 16 September)

Date Brightness Start Highest point End Pass type
(mag) Time Alt. Az. Time Alt. Az. Time Alt. Az.
17 Sep ? 10:17:50 10° WSW 10:20:54 32° NW 10:22:50 18° NNE visible
18 Sep ? 09:30:39 10° WSW 09:33:58 55° NW 09:37:17 10° NE visible
18 Sep ? 11:10:46 10° NNW 11:11:22 10° NNW 11:11:22 10° NNW visible
19 Sep ? 10:22:22 10° WNW 10:24:17 14° NNW 10:26:12 10° N visible
20 Sep ? 09:34:37 10° W 09:37:12 20° NNW 09:39:48 10° NNE visible
22 Sep ? 09:40:28 10° NNW 09:40:41 10° NNW 09:40:56 10° NNW visible
